Regional Weather Roundup
Issued by NWS Northern Indiana

Home | Current Version | Previous Version | Text Only | Print | Product List | Glossary Off
Versions: 1 2 3 4 5 6 7 8 9 10 11 12 13 14 15 16 17 18 19 20 21 22 23 24 25 26 27 28 29 30 31 32 33 34 35 36 37 38 39 40 41 42 43 44 45 46 47 48 49 50

000
ASUS43 KIWX 071700
RWRIWX

KIWX WEATHER ROUNDUP
NATIONAL WEATHER SERVICE NORTHERN INDIANA
1200 PM EST SUN FEB 07 2016

NOTE: "FAIR" INDICATES FEW OR NO CLOUDS BELOW 12,000 FEET WITH NO
SIGNIFICANT WEATHER AND/OR OBSTRUCTIONS TO VISIBILITY.

* THESE STATIONS ARE NOT UNDER NWS QUALITY CONTROL. THEY ALSO MAY NOT
  REPORT WEATHER SUCH AS PRECIPITATION OR FOG.

INZ001>027-071800-
NORTHERN INDIANA

CITY           SKY/WX    TMP DP  RH WIND       PRES   REMARKS
GARY*          PTSUNNY   45  27  49 SW17G32   29.82F
SOUTH BEND     CLOUDY    43  28  55 SW24G30   29.84F
GOSHEN         CLOUDY    43  29  57 S20       29.85F
FORT WAYNE     PTSUNNY   45  31  58 SW21G28   29.93F
PERU/GRISSOM   CLOUDY    45  30  55 SW21G28   29.88F

$$
INZ028>050-071800-
CENTRAL INDIANA

CITY           SKY/WX    TMP DP  RH WIND       PRES   REMARKS
LAFAYETTE      CLOUDY    45  27  49 SW17G25   29.91F
KOKOMO*          N/A     45  28  53 SW16G24   29.92F
MUNCIE*        MOSUNNY   46  26  45 SW15G23   29.96F
INDIANAPOLIS   MOSUNNY   50  28  42 SW21G29   29.96F

$$
MIZ043>046-050>051-056>058-064>065-071>073-077>080-071800-
SOUTHWEST LOWER MICHIGAN

CITY           SKY/WX    TMP DP  RH WIND       PRES   REMARKS
BATTLE CREEK   MOSUNNY   41  30  65 S17       29.82F
BENTON HARBOR  CLOUDY    46  29  51 SW16G26   29.80F
COLDWATER*     CLOUDY    43  30  59 SW9G16    29.85F
HILLSDALE*     MOSUNNY   40  29  64 S9G17     29.86F
HOLLAND        CLOUDY    42  30  62 SW22G31   29.78F
GRAND RAPIDS   CLOUDY    42  30  62 SW10      29.78F
KALAMAZOO      MOSUNNY   44  30  57 S16       29.82F
STURGIS*       CLOUDY    40  30  67 S15G24    29.84F
THREE RIVERS*  CLOUDY    43  32  65 SW17      29.84F

$$
OHZ001>008-015>018-024>025-071800-
NORTHWEST OHIO

CITY           SKY/WX    TMP DP  RH WIND       PRES   REMARKS
DEFIANCE       SUNNY     44  29  55 SW16G25   29.93F
FINDLAY        CLOUDY    45  31  58 S17       29.95F
TOLEDO EXPRESS MOSUNNY   44  28  53 S14G22    29.92F
TOLEDO METCALF MOSUNNY   45  28  51 SW14      29.94F
LIMA           CLOUDY    44  30  57 SW15G21   29.96F

$$
AND FOR LAKE MICHIGAN COASTAL AND OPEN LAKE BUOY OBSERVATIONS

STATION/POSITION TEMP    WIND        PRES    VSBY  WAVE
                 AIR SEA DIR/SP/G                  HT/PER
                 (F)     (DEG/KT/KT) (MB)    (MI)  (FT/S)
CALUMET HARBOR           210/ 12/ 20   N/A
MICHIGAN CITY     42     190/ 21/ 24   N/A
BURNS HARBOR      43     220/ 23     1010.5F
SAINT JOSEPH      41     180/ 17/ 23 1010.2F

$$
&&



USA.gov is the U.S. government's official web portal to all federal, state and local government web resources and services.